Location: Corralito
(10.2667°N, 66.9500°W)
Time: 18:00:50
(UTC+00:00)

Cosmos 2251 Rocket - Pass Details

Date: 08 December 2023
Orbit: 763 x 790 km, 74.0° (Epoch: 03 March)

Event Time Altitude Azimuth Distance (km) Brightness Sun altitude
Rises 22:24:23 0° 352° (N) 3,271 6.6 -5.0°
Reaches altitude 10° 22:26:48 10° 354° (N) 2,345 5.9 -5.6°
Maximum altitude 22:32:06 68° 77° (ENE) 849 3.5 -6.8°
Drops below altitude 10° 22:37:24 10° 160° (SSE) 2,345 6.1 -8.0°
Sets 22:39:48 0° 162° (SSE) 3,272 6.8 -8.5°
